This is the latest recevied weather packets stored in our database for station/object KB1WCR. If no packets are shown the sender has not sent any weather packets the latest 10 day(s).
| Time | Temp. | Humidity | Pressure | Rain* | Wind** | Luminosity | Snow |
|---|---|---|---|---|---|---|---|
| 1788291055 | 20.56° C | 86% | 1018.1 hPa | 0 mm | - | 280 W/m² | - |
| 1788290750 | 21.11° C | 84% | 1018.3 hPa | 0 mm | - | 249 W/m² | - |
| 1788290446 | 21.11° C | 82% | 1018.3 hPa | 0 mm | - | 230 W/m² | - |
| 1788290142 | 21.11° C | 81% | 1018.3 hPa | 0 mm | - | 228 W/m² | - |
| 1788289838 | 21.67° C | 80% | 1018.4 hPa | 0 mm | - | 215 W/m² | - |
| 1788289533 | 21.67° C | 79% | 1018.3 hPa | 0 mm | - | 216 W/m² | - |
| 1788289232 | 22.22° C | 77% | 1018.5 hPa | 0 mm | - | 210 W/m² | - |
| 1788288925 | 22.22° C | 76% | 1018.3 hPa | 0 mm | - | 213 W/m² | - |
| 1788288624 | 22.78° C | 75% | 1018.2 hPa | 0 mm | - | 228 W/m² | - |
| 1788288320 | 22.78° C | 73% | 1018.2 hPa | 0 mm | - | 258 W/m² | - |
| 1788288015 | 23.33° C | 71% | 1018.3 hPa | 0 mm | - | 250 W/m² | - |
| 1788287710 | 23.33° C | 67% | 1018.3 hPa | 0 mm | - | 275 W/m² | - |
| 1788287405 | 24.44° C | 67% | 1018.1 hPa | 0 mm | - | 333 W/m² | - |
| 1788287101 | 23.89° C | 67% | 1018 hPa | 0 mm | - | 656 W/m² | - |
| 1788286800 | 24.44° C | 67% | 1018.1 hPa | 0 mm | - | 430 W/m² | - |
| 1788286495 | 23.33° C | 67% | 1018 hPa | 0 mm | - | 385 W/m² | - |
| 1788286194 | 22.78° C | 63% | 1018 hPa | 0 mm | - | 403 W/m² | - |
| 1788285894 | 23.33° C | 66% | 1018 hPa | 0 mm | - | 326 W/m² | - |
| 1788285604 | 23.33° C | 64% | 1018.1 hPa | 0 mm | - | 310 W/m² | - |
| 1788285287 | 23.89° C | 61% | 1017.8 hPa | 0 mm | - | 348 W/m² | - |
| 1788284982 | 23.33° C | 62% | 1018 hPa | 0 mm | - | 418 W/m² | - |
| 1788284677 | 23.33° C | 63% | 1018.1 hPa | 0 mm | - | 454 W/m² | - |
| 1788284373 | 22.78° C | 67% | 1017.8 hPa | 0 mm | - | 417 W/m² | - |
| 1788284068 | 22.78° C | 65% | 1018.3 hPa | 0 mm | - | 404 W/m² | - |
| 1788283765 | 22.78° C | 66% | 1018 hPa | 0 mm | - | 634 W/m² | - |
* Rain latest hour (hover to see other rain measurements)
** Current wind speed in m/s (hover to see current wind gust speed)